Wind_Speed
28 28 28 28 28 28 29 29 29 30 31 31 31 30 29 29 28 25 23 23 24 24 25 26 27 29 30 32 34 35 36 37 38 38 38 39 39 38 38 38 38 38 38 38 38 39 39 40 41 41 41 39 39 41 41 40 41 42 43 45 46 46 45 45 45 45 47 48 50 51 53 55 56 57 58 59 60 60 60 61 62 63 64 64 65 66 68 69
28 28 28 28 28 29 29 29 29 30 30 30 29 29 28 26 24 22 21 21 22 23 24 26 27 29 30 31 33 35 36 37 38 39 40 40 41 41 42 41 41 41 41 41 41 42 42 43 44 44 45 45 45 45 43 43 45 45 47 49 51 51 50 50 50 50 50 51 53 54 56 58 59 60 61 62 63 64 64 65 66 66 67 68 68 69 70 71
28 29 28 28 28 29 28 28 29 29 29 28 28 27 25 23 22 20 19 19 21 23 24 25 27 28 29 30 31 33 35 36 37 38 39 40 41 42 43 43 43 43 43 44 45 45 46 46 46 45 46 47 48 47 45 47 49 49 50 52 54 55 55 56 56 55 55 56 56 57 58 59 60 62 63 64 65 66 67 68 69 70 70 71 71 72 73 73
29 29 28 28 28 28 28 28 28 27 27 26 26 25 24 22 21 20 19 19 21 23 24 25 26 27 29 30 31 33 34 35 36 38 39 40 41 42 43 43 44 45 46 46 47 48 48 48 49 48 48 48 49 50 51 53 54 53 54 54 55 57 59 60 60 60 60 61 61 62 62 63 64 65 65 66 67 68 69 70 71 72 73 74 75 75 76 77
29 29 29 28 28 27 28 27 26 25 24 24 23 22 21 20 19 19 19 19 20 21 23 24 25 26 28 29 31 32 33 34 36 38 39 40 42 43 44 44 45 46 47 48 49 50 51 51 52 53 53 52 52 53 54 56 57 58 58 59 60 62 62 63 63 63 64 65 65 66 67 68 69 69 70 71 71 72 73 74 75 75 76 77 78 78 79 80
29 29 29 28 28 27 27 25 24 23 21 21 19 18 18 18 18 18 19 20 21 21 22 24 25 26 27 29 31 32 33 34 36 37 39 40 42 43 44 45 46 47 48 49 50 50 51 52 53 54 55 56 56 57 57 58 60 61 62 64 65 66 66 67 67 67 67 68 68 69 69 70 71 72 73 75 76 77 78 79 79 79 80 81 82 82 83 84
29 29 28 28 27 27 25 23 22 21 19 16 15 16 17 17 18 19 20 21 23 24 25 26 28 29 30 32 33 34 35 37 38 39 41 42 44 45 46 47 48 49 50 50 50 50 50 51 52 53 54 56 57 59 60 62 63 64 65 66 67 68 69 70 70 70 70 70 70 71 72 73 74 74 76 77 79 80 81 82 83 84 85 85 86 86 87 88
29 28 28 27 26 25 23 22 21 19 17 15 16 19 20 20 21 22 23 25 26 27 28 29 31 32 33 34 35 37 38 40 41 42 44 45 46 47 48 49 50 51 52 52 52 53 54 55 56 56 57 57 58 59 60 62 63 65 66 67 68 69 70 71 71 72 73 73 74 75 76 77 78 78 79 81 82 83 84 85 86 87 88 89 90 90 91 92
28 28 27 26 24 22 22 22 21 20 18 17 19 22 24 25 26 27 28 30 31 31 33 34 35 36 38 39 40 41 42 43 44 46 47 47 48 50 51 52 53 54 55 56 57 58 59 59 60 60 61 61 61 61 62 62 63 64 65 66 67 69 70 71 72 73 74 75 76 76 77 78 79 79 80 81 82 83 84 85 86 87 88 90 91 92 94 95
27 27 26 25 23 22 22 23 23 22 22 21 21 22 24 26 28 29 31 32 33 34 36 37 38 40 41 42 43 44 46 46 47 49 50 51 52 54 55 55 56 56 57 57 58 58 59 59 59 60 60 61 61 62 64 64 65 66 67 68 69 70 71 72 73 75 76 76 77 78 78 79 80 81 81 82 83 84 85 86 87 88 89 90 91 93 94 95
26 26 25 24 23 22 24 25 26 25 25 25 25 25 26 28 30 32 33 35 36 37 38 39 41 42 43 45 46 47 49 49 50 52 53 54 54 54 55 55 55 55 55 55 55 55 55 55 55 55 56 57 58 60 62 63 65 66 68 69 71 72 73 74 75 76 77 78 79 80 80 81 83 84 84 85 86 87 88 89 90 91 92 93 94 95 96 97
26 25 24 25 24 23 25 28 28 29 29 29 29 30 30 32 33 35 37 38 39 40 41 42 44 45 46 48 49 50 51 52 52 52 53 53 53 52 52 52 51 51 50 50 50 50 50 50 50 51 52 53 54 56 57 60 62 64 66 68 70 71 73 74 76 77 78 79 80 81 81 83 84 85 86 87 88 89 90 92 93 93 94 95 96 97 98 99
25 25 25 26 26 26 27 29 31 32 32 33 33 33 34 35 36 38 39 40 41 41 42 44 45 46 47 48 49 49 50 50 50 49 50 50 50 50 49 47 46 45 44 44 44 45 45 46 46 47 48 49 50 52 53 55 57 60 62 64 66 68 69 71 73 74 76 77 79 80 80 81 83 84 85 85 86 87 89 90 90 91 92 92 93 94 94 95
25 26 26 27 28 28 28 29 30 32 33 34 35 36 36 37 37 38 38 39 40 41 42 43 43 43 44 45 46 46 47 48 48 47 47 47 47 45 44 42 41 41 40 40 41 42 43 44 45 46 47 48 50 51 52 54 56 57 59 61 63 64 65 67 69 70 72 73 74 75 76 77 79 80 81 81 82 83 84 85 86 87 88 88 89 90 91 92
25 26 27 28 28 29 29 30 31 31 32 33 34 35 35 35 35 36 37 38 39 40 41 41 41 42 42 43 44 44 44 45 46 46 45 43 41 40 39 39 39 39 40 40 41 43 44 46 47 48 50 51 52 54 55 56 58 59 60 61 63 64 65 66 68 69 70 72 73 74 74 76 77 78 79 81 82 83 84 85 86 87 88 89 89 90 91 92
25 25 26 27 28 29 30 31 31 32 32 33 34 33 33 34 35 36 37 37 38 39 39 39 40 41 42 42 43 43 43 44 44 43 41 40 39 38 38 38 39 40 41 43 44 46 47 49 50 52 53 55 56 57 58 59 61 62 63 64 65 66 67 68 70 71 72 73 74 76 76 77 79 80 81 82 84 85 86 87 88 88 89 90 91 91 92 93
24 25 26 27 28 29 30 31 32 33 33 33 32 33 33 34 36 36 36 36 36 37 37 38 39 40 41 41 42 42 42 42 40 39 38 38 37 38 39 40 41 43 44 46 47 49 51 52 54 55 57 58 59 60 61 62 63 64 65 66 67 68 69 70 71 73 74 75 76 77 78 79 80 81 82 83 83 84 85 86 86 87 87 88 88 89 89 90
24 25 27 28 29 30 31 32 33 32 31 30 31 32 34 34 35 35 34 34 35 36 36 38 38 39 39 40 41 41 40 39 37 37 37 37 38 39 41 42 44 46 47 49 51 52 53 55 57 58 60 60 61 62 62 63 64 65 66 66 67 68 69 70 71 71 72 73 74 75 75 76 77 77 78 78 79 79 80 81 81 82 82 83 83 84 84 85
25 26 28 29 30 31 31 31 31 30 29 29 30 32 33 33 33 33 33 33 34 35 36 37 37 38 39 40 40 39 37 36 36 36 37 38 40 41 43 45 47 49 50 52 53 55 56 58 59 59 60 60 61 61 61 62 62 62 63 64 64 65 66 66 66 67 68 68 69 70 70 71 72 72 72 73 73 74 75 76 76 77 78 79 80 80 81 82
26 28 28 29 30 30 30 30 29 28 28 30 31 31 32 32 31 31 32 32 33 34 35 36 37 38 38 38 37 36 35 35 36 37 38 40 42 44 46 48 50 52 53 54 55 56 57 57 58 58 58 58 58 58 58 58 58 58 59 59 60 61 61 62 62 63 64 64 65 66 67 68 68 68 69 70 71 72 72 73 74 75 76 77 78 78 79 80
27 28 29 29 29 29 29 28 27 27 28 30 31 31 31 31 31 31 31 32 33 34 35 36 37 37 36 35 34 35 35 36 37 39 41 42 44 47 49 51 52 54 54 55 55 55 55 55 55 55 54 54 54 54 54 54 55 55 56 56 57 58 58 59 60 61 62 62 63 65 65 66 66 66 68 69 69 70 71 72 72 73 74 75 76 77 78 79
27 28 29 29 28 28 27 27 26 27 28 29 30 30 30 30 30 31 31 32 33 34 35 35 35 34 34 34 34 35 36 37 39 41 43 45 47 50 51 52 53 54 54 54 54 53 53 52 51 51 51 51 51 51 51 52 52 52 53 53 54 55 56 57 58 59 60 60 62 63 64 66 65 65 67 68 68 69 70 70 71 72 73 74 76 77 78 80
28 29 29 28 27 26 25 26 26 27 28 29 29 29 29 29 30 30 31 32 33 34 33 33 33 33 33 34 35 36 38 40 42 44 46 48 50 51 53 53 53 53 52 52 51 50 50 49 49 49 49 48 48 48 49 49 49 50 50 51 52 53 54 56 57 58 59 60 61 62 64 65 65 66 67 67 68 69 70 71 71 72 73 74 75 76 77 78
28 29 28 27 25 25 25 26 27 28 28 28 28 28 28 29 29 30 31 32 32 32 31 31 31 32 34 35 36 38 40 42 44 47 48 50 52 52 53 52 52 51 50 49 48 47 47 47 46 46 46 45 45 46 46 47 47 48 49 50 51 52 53 55 56 58 59 60 60 61 64 65 64 65 66 66 66 67 67 68 68 68 69 69 69 70 70 70
28 28 27 26 25 26 27 27 28 28 27 27 27 27 28 28 29 30 31 31 30 30 30 31 31 33 35 37 38 40 42 44 46 48 50 51 52 52 52 51 50 49 47 46 45 45 45 44 44 43 43 43 43 44 44 45 46 47 48 49 50 51 52 53 54 56 56 57 57 57 58 59 57 58 59 58 59 59 59 59 59 59 59 59 59 59 60 60
28 27 26 26 26 27 27 27 27 27 26 26 27 27 27 28 28 29 29 29 29 30 31 31 33 34 36 38 40 42 44 47 48 50 51 51 51 50 50 49 47 45 44 43 43 43 42 42 42 42 42 42 42 43 44 44 45 46 46 47 47 48 48 48 49 49 49 49 49 48 48 49 48 48 48 48 48 48 48 48 47 48 48 48 48 49 49 50
28 27 26 27 28 28 27 26 26 26 26 26 26 26 27 27 28 29 29 29 29 30 31 33 34 36 38 40 42 44 46 48 50 51 50 50 49 49 47 45 43 42 42 41 40 40 40 40 40 41 41 41 42 42 43 43 43 43 43 43 43 42 42 42 41 41 41 40 40 40 40 40 40 39 38 39 39 38 39 39 39 40 42 42 43 45 46 46
27 27 27 27 28 27 26 25 25 25 25 25 25 26 26 27 28 28 29 29 30 31 32 34 36 38 40 42 44 46 47 49 50 50 49 49 48 46 44 42 41 40 40 39 39 39 39 39 39 39 39 40 40 40 40 40 39 39 38 38 38 37 36 36 35 35 35 34 34 34 34 33 33 34 34 34 35 36 37 37 38 39 40 41 42 43 44 45
26 26 27 27 26 25 24 25 25 25 25 25 25 26 27 27 28 28 28 29 31 32 34 36 38 40 42 44 46 48 48 49 49 49 48 47 45 43 41 40 39 38 38 37 37 37 37 38 38 38 38 38 38 37 37 36 35 34 34 33 33 32 32 31 31 31 32 32 33 33 33 33 33 34 35 35 34 35 35 35 36 36 37 37 38 40 42 42
25 26 26 26 25 24 24 25 25 24 24 25 25 26 27 27 27 28 29 30 32 34 36 38 40 42 44 46 48 49 49 49 48 48 47 45 42 40 39 38 37 37 36 36 36 36 36 36 37 36 36 35 35 34 33 32 32 31 30 30 30 31 31 32 32 33 34 35 35 35 35 37 37 34 34 34 32 31 31 31 31 31 33 34 36 38 41 42
25 25 26 25 24 24 24 24 24 24 24 25 26 26 27 28 28 29 30 32 34 36 38 40 42 44 46 48 49 49 49 49 49 47 44 41 40 38 38 37 36 36 35 35 35 35 35 35 36 35 34 34 33 32 32 31 31 31 32 32 33 35 35 36 36 36 36 34 33 33 31 33 37 34 31 33 33 33 32 32 32 33 33 34 35 38 41 43
25 25 25 24 24 25 25 24 24 24 25 25 26 27 28 29 29 31 32 34 36 38 40 42 44 46 48 48 49 49 48 48 47 45 41 39 38 37 36 35 35 34 34 34 35 35 35 35 35 35 35 34 33 33 32 33 34 34 35 35 36 36 37 37 37 37 37 34 32 32 29 28 33 34 31 31 34 36 36 37 37 38 38 38 39 40 42 44
24 25 25 24 25 26 25 24 24 24 25 26 27 28 29 30 31 32 34 36 38 40 42 44 46 48 49 49 49 48 48 47 45 41 39 38 36 35 35 34 34 34 34 35 35 35 36 36 36 36 36 35 34 33 34 34 34 34 34 34 34 34 34 34 35 36 37 37 35 34 31 27 29 32 32 33 36 37 38 39 40 42 43 43 43 44 46 48
24 25 25 25 26 25 24 23 24 25 26 27 28 29 30 31 32 34 36 38 40 42 44 47 48 49 49 49 48 48 47 45 42 39 37 36 35 35 34 34 34 34 35 36 36 36 37 37 37 36 36 35 34 34 34 34 34 34 34 34 33 33 33 33 33 34 36 39 40 40 38 31 27 30 33 35 38 40 41 41 42 44 46 47 48 48 50 52
25 25 25 25 24 23 23 23 24 26 27 27 28 29 30 32 34 36 38 40 42 44 47 48 49 49 49 48 48 47 46 42 39 38 36 35 35 34 34 34 34 35 36 37 37 38 38 38 37 36 35 35 34 34 33 34 34 34 34 35 35 35 35 35 35 35 35 38 42 44 46 40 31 32 36 36 38 42 45 45 46 47 49 51 52 52 54 56
25 25 25 24 23 22 23 24 25 26 26 27 28 29 31 33 35 37 39 41 44 46 48 49 50 50 49 48 48 47 43 40 38 37 35 34 34 34 34 34 35 35 36 37 38 38 39 38 37 37 36 35 35 35 34 34 34 34 34 35 36 37 37 37 37 37 36 38 42 45 50 50 41 38 40 39 39 43 47 49 49 50 52 54 55 56 58 59
25 25 24 22 22 23 24 25 26 26 26 27 28 30 32 35 36 38 40 43 46 48 49 50 50 50 49 48 47 44 40 38 37 36 35 34 34 34 34 35 35 36 37 38 38 39 39 39 38 38 37 36 36 36 37 36 35 35 34 34 35 37 39 40 40 39 38 38 41 45 52 56 49 46 46 44 42 45 49 51 51 52 54 56 58 59 60 62
25 24 22 22 22 23 25 26 26 25 26 27 29 31 34 36 37 40 43 45 47 48 49 50 50 49 49 48 45 41 38 38 37 36 34 34 34 34 34 35 36 36 38 38 39 39 39 40 40 39 39 38 38 38 39 40 39 38 37 36 36 37 39 41 42 42 40 39 39 42 52 59 54 51 52 49 48 50 52 54 55 55 57 58 59 61 63 64
23 22 22 22 23 24 25 25 25 25 26 28 30 33 34 36 39 42 45 46 48 49 49 49 49 49 49 46 43 39 38 38 37 35 35 34 34 34 35 36 36 37 38 39 40 41 41 41 41 41 41 41 40 40 41 42 43 43 42 40 40 40 40 42 44 44 43 42 41 39 50 61 58 55 56 53 53 56 57 58 59 59 60 61 62 63 64 66
22 22 22 23 24 24 25 25 25 25 27 29 31 33 35 38 41 44 46 47 48 49 48 48 49 48 47 44 40 39 38 37 37 36 35 35 35 35 35 36 37 38 39 40 41 42 42 43 44 44 43 43 43 43 44 45 46 46 46 44 43 43 43 43 45 47 46 46 45 41 48 60 61 58 59 57 57 60 61 62 63 64 64 64 65 65 66 67
22 21 22 23 24 24 24 24 25 27 29 30 32 34 37 40 43 45 46 48 48 48 47 48 48 47 44 41 39 38 38 38 37 36 36 36 36 36 36 37 38 39 40 41 42 43 44 45 46 47 47 46 46 46 47 48 49 49 48 47 46 46 46 46 47 48 48 49 49 45 48 58 63 62 61 60 61 64 65 66 67 68 68 68 68 68 68 69
21 22 23 24 24 24 24 24 26 28 29 31 33 36 39 41 43 45 47 47 47 47 47 47 47 44 42 40 39 39 39 38 38 37 37 37 37 38 38 38 39 40 41 42 43 44 45 45 48 50 51 50 49 49 50 52 53 53 52 50 49 48 49 50 50 50 50 51 52 50 50 57 64 65 62 61 63 67 69 69 71 72 72 72 71 70 70 70
21 22 23 24 24 24 24 25 27 29 29 32 34 37 40 42 44 46 47 47 46 46 46 46 45 42 40 39 39 39 39 39 39 39 39 39 39 39 40 40 41 41 42 43 44 45 46 46 47 50 53 53 53 52 53 55 57 57 57 55 52 51 51 52 54 55 52 53 55 55 52 56 65 68 64 63 66 69 71 73 74 75 75 75 73 72 72 71
22 23 24 24 23 23 24 26 27 29 30 33 36 38 40 42 45 46 46 45 45 45 46 45 43 41 39 38 38 39 39 39 40 40 40 40 41 41 42 42 43 44 44 45 46 47 49 48 48 49 51 53 54 54 55 57 60 61 62 60 56 54 54 54 57 59 57 55 58 60 56 57 68 72 67 66 69 71 74 76 76 76 76 76 76 75 74 74
23 23 24 23 23 23 25 26 28 30 32 35 37 39 41 43 44 45 44 44 44 44 45 44 42 40 39 38 38 38 38 39 40 40 41 41 42 42 43 44 45 46 46 47 48 49 51 52 52 52 53 52 52 53 53 56 59 62 63 62 58 56 56 57 59 62 62 57 58 64 61 58 68 75 72 71 73 73 76 78 78 79 78 78 77 77 76 76
23 23 22 22 23 24 25 27 29 31 34 36 37 39 41 43 43 43 43 43 43 43 44 43 42 40 39 38 38 38 38 38 39 40 41 41 43 43 44 45 46 47 47 48 49 50 52 54 55 55 57 57 55 55 55 56 60 63 66 64 60 56 56 58 61 65 66 61 59 65 65 61 67 74 73 74 76 75 76 78 79 81 81 80 79 77 76 76
22 21 22 22 23 25 26 28 30 33 34 36 38 40 42 42 42 42 42 42 42 43 43 42 41 40 39 39 39 39 39 39 39 39 40 41 42 43 44 44 46 46 47 48 48 49 50 53 54 55 59 60 58 58 59 59 62 66 69 67 63 58 57 60 63 67 68 66 63 65 67 67 69 72 72 73 75 75 75 77 79 82 82 81 78 76 75 75
21 22 22 23 24 25 27 29 32 33 35 37 39 41 41 41 41 41 42 42 42 42 42 42 42 41 40 39 39 39 39 40 40 41 41 41 42 43 44 44 45 46 47 47 48 48 48 50 52 53 56 60 59 58 59 60 63 67 70 70 66 61 60 61 64 68 69 68 67 66 67 70 73 72 71 74 76 75 76 78 80 83 83 80 76 75 75 76
22 22 23 24 25 27 29 31 32 34 36 38 40 41 41 40 40 41 41 42 42 43 43 43 43 42 42 41 41 41 40 41 42 42 43 44 44 45 46 46 47 48 48 48 49 49 47 48 49 49 51 56 58 57 58 59 62 66 70 72 69 64 62 62 64 68 69 68 68 67 66 69 73 74 72 74 76 77 78 79 81 83 82 79 76 77 78 78
22 23 24 25 27 28 30 31 33 34 36 39 40 40 40 40 40 41 41 42 43 43 43 44 44 44 44 43 43 43 43 43 43 44 45 46 46 47 48 49 49 50 51 50 50 51 49 48 48 47 47 52 55 55 56 58 61 65 68 71 70 65 62 62 64 67 69 69 68 68 67 68 71 73 73 74 76 78 79 79 80 81 81 79 78 79 80 81
23 24 25 27 28 29 31 32 33 35 37 39 40 40 39 39 40 41 41 42 43 43 44 44 44 45 45 45 44 45 45 45 45 46 46 47 48 49 49 50 51 52 53 53 52 53 52 51 50 48 47 49 52 53 53 56 59 63 67 68 68 65 62 62 64 67 69 69 68 68 69 70 71 72 73 74 76 77 77 77 79 80 80 79 79 80 81 82
25 25 27 28 28 30 31 32 34 36 38 39 40 39 39 39 40 41 42 42 43 43 44 44 44 44 45 45 45 45 46 46 47 47 48 48 49 50 51 52 52 53 53 54 54 54 54 53 52 51 48 48 51 51 51 54 57 61 66 66 64 63 62 62 64 67 69 70 69 69 71 73 73 74 74 73 74 75 75 77 80 81 79 78 80 81 82 82
Wind_Direction
227 229 231 234 236 238 240 242 245 246 247 249 250 252 254 254 255 257 258 259 258 255 252 251 250 249 248 247 246 247 249 251 253 254 256 259 260 261 260 260 260 258 258 259 259 260 260 260 260 261 261 261 263 263 262 261 262 263 263 263 262 262 261 260 259 259 260 262 263 263 263 263 262 262 262 262 262 262 262 262 261 261 261 261 260 260 260 259
226 227 229 231 235 237 240 241 243 244 246 248 249 250 252 255 257 257 258 258 258 258 256 255 253 253 252 251 251 251 252 254 255 256 258 260 261 262 262 263 265 264 263 263 263 263 263 263 264 265 266 265 265 264 264 264 264 264 263 263 262 262 261 260 258 257 257 257 259 260 260 261 261 262 262 262 262 262 262 262 262 263 263 263 263 263 262 262
226 228 228 231 234 237 239 240 241 243 246 249 251 251 251 252 252 250 252 256 258 258 259 259 258 257 256 256 256 256 256 257 259 260 262 263 263 264 264 265 266 267 267 268 268 268 267 267 267 266 267 268 268 266 264 263 263 262 262 262 263 265 265 264 262 261 259 258 259 260 260 261 261 261 262 262 262 263 263 263 263 263 263 263 263 263 264 264
227 230 231 232 234 237 238 239 240 243 246 249 253 255 255 254 252 250 252 257 260 261 261 261 261 260 258 258 258 259 260 260 262 263 264 265 266 266 267 268 268 269 269 269 270 271 271 270 269 268 266 265 265 266 265 263 263 262 261 261 264 267 269 268 267 265 264 263 262 262 263 263 263 263 263 263 263 263 263 263 263 263 263 263 263 263 263 263
227 230 231 232 233 235 236 237 239 243 246 250 253 257 259 255 253 254 256 259 261 263 262 261 261 261 261 261 261 262 262 263 263 264 264 265 266 267 268 269 269 270 270 271 271 271 272 272 271 270 268 266 264 265 265 265 266 265 264 263 265 268 269 268 268 267 267 266 266 266 266 266 265 265 265 265 265 265 264 264 264 265 264 264 264 264 264 263
225 227 229 231 232 233 235 236 239 242 246 251 252 255 257 257 258 262 265 266 267 269 270 269 269 269 269 268 267 266 266 266 266 266 266 266 266 267 268 268 269 270 270 271 272 271 271 272 272 272 270 268 267 265 265 265 266 266 266 266 268 269 270 269 269 269 269 269 268 268 268 268 267 267 267 267 267 266 266 266 266 266 266 266 265 265 265 265
223 225 227 229 230 231 234 235 238 242 246 247 243 243 249 255 264 272 274 274 275 277 279 279 279 277 275 273 272 271 270 270 270 270 270 270 270 270 271 271 271 272 273 273 273 272 272 274 275 274 273 271 269 267 266 266 266 266 267 267 268 269 270 270 270 270 270 269 269 269 269 269 268 268 268 268 267 267 267 267 267 267 266 266 266 266 266 266
221 224 225 228 229 230 233 234 236 243 247 239 230 234 238 242 250 259 263 265 268 271 273 275 276 276 276 276 276 276 275 275 275 275 275 275 275 275 275 275 276 276 276 277 277 276 277 277 277 276 276 274 273 271 269 268 267 267 267 268 268 269 269 269 269 269 269 269 269 269 269 269 269 269 269 269 268 268 268 268 268 268 267 267 266 266 266 266
221 223 224 226 228 230 232 236 239 244 248 243 235 236 240 242 245 249 253 257 260 262 264 266 268 270 272 275 276 277 277 278 279 279 279 279 279 279 279 279 279 279 279 279 279 279 279 278 278 277 276 275 274 274 273 272 271 270 270 270 270 270 270 270 270 270 270 270 270 270 270 270 270 269 269 269 269 269 269 269 269 269 268 268 268 267 267 267
221 222 224 226 228 228 228 233 240 245 249 250 248 247 248 250 252 254 257 259 262 263 265 267 268 270 272 275 276 276 278 279 280 280 281 281 281 281 282 282 282 282 282 281 281 280 279 279 278 277 276 275 274 273 272 272 271 271 270 270 270 270 270 270 270 270 270 270 270 270 270 271 271 270 270 270 270 270 270 270 270 270 270 270 269 269 269 268
221 222 224 226 228 226 224 227 235 240 243 246 248 250 250 252 254 257 259 262 265 267 268 270 271 273 274 276 276 277 279 280 281 282 282 283 283 284 284 285 285 285 285 284 283 282 281 280 278 277 276 275 274 273 272 271 271 270 270 270 270 269 269 270 270 270 270 270 270 270 271 271 271 271 271 271 271 271 271 271 271 271 271 271 271 270 270 270
221 222 223 227 229 227 225 227 232 236 239 242 244 247 248 250 252 255 258 261 264 266 269 271 272 274 276 277 278 279 281 281 282 283 284 285 286 286 287 288 287 287 286 285 285 284 283 282 280 279 278 277 275 274 273 272 271 271 270 270 270 270 270 270 270 270 270 271 271 271 271 271 271 271 271 272 272 271 271 271 271 271 271 271 271 271 271 271
221 222 224 226 230 232 230 230 233 236 239 243 246 249 251 253 256 259 262 265 268 271 273 275 276 278 279 280 281 282 283 284 284 285 286 288 289 289 289 289 288 287 286 285 285 284 284 283 282 281 280 279 278 277 276 274 273 273 272 272 271 271 271 271 271 271 271 271 271 272 272 271 272 272 272 272 272 272 272 272 272 272 272 272 272 272 271 271
221 223 225 227 231 234 236 237 238 240 243 246 250 253 256 260 263 267 270 274 276 277 278 279 280 281 281 282 283 284 285 286 287 288 289 290 291 291 291 290 289 287 286 285 285 284 284 284 283 282 282 281 280 279 278 277 276 275 275 274 274 274 273 273 273 273 273 273 273 273 273 273 273 273 273 273 273 273 273 273 273 273 273 273 272 272 272 272
223 225 228 230 233 236 240 243 245 247 249 252 255 258 262 267 272 276 278 279 279 279 279 280 281 281 282 283 284 286 287 289 290 292 293 292 291 291 290 290 290 289 289 288 288 288 287 287 286 285 284 283 283 282 281 280 280 279 279 278 278 278 277 277 277 276 276 276 276 276 276 276 276 276 275 275 275 275 275 275 275 275 275 275 275 274 274 274
226 229 231 234 237 240 243 247 250 253 254 256 259 264 270 275 278 279 279 279 279 279 279 280 280 281 283 285 287 289 290 292 293 294 293 292 292 291 291 291 291 292 292 292 292 291 290 290 288 288 286 286 285 284 284 283 283 282 282 281 281 281 280 279 279 279 278 278 278 278 278 277 277 277 277 277 277 277 277 277 277 277 276 276 276 276 276 276
230 233 235 238 240 243 246 249 252 255 258 261 266 271 275 277 278 278 278 278 279 279 279 280 281 283 286 288 290 292 293 294 294 293 292 292 293 293 293 294 294 294 294 294 293 292 292 290 289 288 288 287 287 286 286 285 284 284 283 282 282 281 280 280 280 279 279 279 279 278 278 278 277 277 277 277 277 277 277 276 276 276 276 276 276 276 276 275
235 237 239 241 243 245 247 251 255 259 265 269 272 274 276 277 278 279 279 279 280 280 281 282 284 286 289 291 293 294 294 293 292 292 293 293 294 295 296 297 296 296 296 295 294 293 292 291 290 289 288 288 287 286 285 285 284 283 283 282 282 281 281 280 280 280 279 279 278 278 278 277 277 277 277 277 277 276 276 276 276 276 276 276 276 276 276 276
239 241 243 245 247 249 252 256 261 267 272 274 274 274 276 278 280 281 281 281 281 282 283 285 287 290 291 293 293 293 293 292 293 294 295 296 296 297 298 298 298 298 297 296 295 293 292 291 290 289 288 288 287 286 286 285 285 284 283 283 282 282 281 281 280 280 280 279 279 279 278 278 277 277 277 277 277 277 277 277 277 277 277 277 277 277 277 278
242 245 247 249 252 255 258 262 267 271 274 275 276 277 279 281 282 283 283 283 284 284 286 288 290 291 292 293 293 293 293 294 295 297 297 298 299 300 299 299 299 298 296 295 294 293 291 291 290 290 289 289 288 288 287 287 286 286 285 285 285 284 284 283 283 282 282 281 281 280 280 279 279 279 279 279 278 278 278 278 278 279 279 279 279 279 279 279
245 249 251 253 256 259 263 266 270 272 274 277 279 281 283 284 284 285 285 285 286 287 288 290 291 292 292 292 293 294 295 296 298 298 299 300 300 300 299 299 298 297 296 295 295 294 293 293 292 292 292 291 291 291 291 291 290 290 289 289 288 287 287 286 286 285 285 284 284 283 283 282 282 282 281 281 281 281 280 280 280 280 280 280 280 280 280 280
248 252 255 258 261 264 268 271 274 275 277 280 282 284 285 286 287 287 287 287 287 288 289 290 291 292 292 293 295 296 297 299 299 299 300 300 300 300 300 299 299 298 298 297 297 296 295 295 295 295 295 295 295 294 294 294 293 293 292 292 291 290 290 289 288 288 287 287 286 286 285 285 285 285 284 284 284 283 283 283 283 283 283 283 283 283 283 283
252 255 259 262 266 270 275 278 279 280 281 283 285 286 287 288 288 288 288 288 289 290 291 292 293 293 294 296 297 299 300 301 301 301 301 301 301 301 301 301 301 300 300 300 299 299 298 298 298 298 298 297 297 297 297 297 297 296 295 295 294 293 292 291 291 290 289 288 288 288 287 287 288 288 287 287 287 287 287 287 287 287 287 286 286 286 285 285
256 260 264 268 272 277 279 280 282 283 284 285 287 288 288 288 288 288 288 289 291 292 292 293 294 295 297 299 300 301 301 302 302 302 302 303 303 303 303 303 303 303 303 302 301 301 300 300 299 299 300 300 300 300 300 300 299 298 298 297 296 295 294 293 293 292 291 290 290 290 290 290 291 291 290 291 291 291 290 290 290 289 289 289 288 288 288 287
259 264 268 273 277 279 280 282 284 284 286 287 288 288 288 288 288 289 290 291 292 292 293 294 296 299 300 301 302 302 302 303 303 303 304 305 305 306 305 305 305 304 304 303 302 302 301 301 302 302 303 303 303 303 303 302 302 301 300 299 298 297 296 296 295 294 294 294 294 294 293 293 294 293 293 293 293 292 292 292 292 292 291 292 292 291 291 291
262 267 273 277 278 279 280 283 284 286 287 288 287 287 288 289 290 290 291 291 292 292 294 297 300 301 302 303 304 304 304 305 305 305 306 306 307 307 307 307 306 305 304 304 303 303 304 304 305 306 307 307 307 307 306 306 305 304 303 302 301 300 300 299 298 298 297 297 297 297 296 296 296 296 296 297 296 297 297 297 297 297 297 297 298 298 298 298
266 271 274 276 277 278 281 283 285 286 286 286 287 288 289 290 291 290 291 292 293 295 298 300 302 303 303 304 305 305 306 306 307 307 308 308 308 308 308 307 306 306 305 305 305 305 306 307 309 310 311 311 310 309 309 309 308 308 307 306 305 304 304 303 303 302 302 303 303 302 302 302 302 302 302 303 304 305 305 306 306 307 307 308 308 307 307 307
268 271 272 273 275 279 282 284 285 285 285 285 286 288 290 291 291 292 293 295 296 298 301 302 304 305 306 306 306 306 307 308 309 309 310 310 310 309 309 308 307 307 306 306 306 307 308 310 311 312 312 312 312 312 312 312 312 311 311 310 310 309 310 310 310 309 309 309 309 309 309 309 310 311 312 314 316 317 318 319 319 319 319 319 318 317 317 317
268 269 270 273 276 279 283 285 285 285 285 286 287 289 291 291 292 294 296 298 299 301 303 304 306 307 308 308 308 308 309 310 311 311 312 312 311 310 309 308 307 307 306 306 307 308 310 310 311 311 312 313 313 314 314 315 315 315 316 316 316 316 317 317 317 318 319 319 320 321 321 321 324 325 325 326 327 326 326 326 325 325 324 324 324 323 322 322
268 269 271 273 276 280 283 285 285 284 285 287 289 291 292 292 294 295 298 299 301 303 305 307 308 309 309 309 310 311 313 313 313 313 313 312 311 310 309 308 307 306 306 306 307 309 309 309 310 311 312 313 314 315 316 317 318 320 321 322 323 324 325 326 327 329 331 331 332 334 333 329 330 332 330 329 328 325 325 324 323 323 324 325 328 329 329 328
268 270 271 274 278 282 284 285 284 284 286 288 290 291 292 294 295 297 299 301 303 306 307 309 309 310 311 312 313 314 315 315 315 314 314 313 311 310 309 308 307 306 306 306 307 307 307 308 308 310 311 312 313 316 318 321 323 325 327 329 332 334 335 335 335 335 336 336 335 336 335 329 326 329 331 330 330 328 327 325 325 325 324 325 328 331 332 332
267 269 272 276 281 284 285 284 284 285 288 290 291 292 293 294 296 298 301 303 305 308 309 310 311 311 312 313 315 315 316 315 315 315 314 312 311 309 308 307 305 305 305 305 304 305 305 306 306 307 308 309 312 316 321 325 329 332 334 337 338 339 339 338 336 335 334 334 333 332 333 329 321 322 327 329 331 331 330 330 330 329 329 328 329 330 331 332
265 268 273 279 284 285 285 284 285 287 289 291 292 293 294 296 298 300 303 305 307 309 310 312 312 313 314 315 316 316 316 316 315 314 313 312 310 308 307 306 305 305 303 303 303 303 303 304 304 305 308 311 315 321 325 329 332 334 335 337 337 336 336 335 333 332 330 329 327 326 327 327 320 318 322 327 328 328 329 330 330 330 330 329 330 330 330 331
264 269 276 281 284 284 284 284 286 288 290 292 292 293 295 298 300 303 305 307 309 310 312 312 313 314 316 316 317 317 317 316 315 314 312 311 309 308 307 306 305 304 303 302 302 302 302 303 305 307 311 315 320 323 326 328 329 330 331 331 331 330 330 329 327 327 326 324 324 322 321 324 323 319 321 325 327 327 327 327 328 329 329 329 329 329 330 330
266 273 279 283 284 283 283 285 288 291 293 294 293 295 297 300 302 304 306 308 310 312 312 313 314 316 317 317 318 318 317 315 314 313 312 310 309 308 307 305 304 303 302 301 301 302 302 304 306 309 313 317 319 321 323 323 324 325 325 325 325 325 324 324 323 323 323 322 322 321 318 319 323 322 320 323 326 326 326 325 327 327 327 327 328 328 328 328
270 277 281 282 282 282 284 288 292 295 296 294 295 297 299 301 304 306 308 310 312 312 313 315 316 317 317 318 318 317 316 314 313 313 311 310 309 307 306 304 303 302 301 301 301 302 303 305 307 310 312 315 316 317 317 318 318 318 319 320 320 321 320 320 320 320 321 321 321 321 316 315 320 323 320 322 325 324 323 323 324 325 325 325 325 326 326 325
275 280 280 280 281 283 287 291 294 296 295 295 297 299 301 303 305 307 309 311 312 314 315 317 317 317 318 318 318 316 315 313 313 312 311 310 309 307 306 304 303 302 302 301 301 302 303 305 307 308 310 312 313 314 313 313 313 313 314 315 316 317 316 316 317 317 320 321 321 321 314 311 318 322 320 322 323 321 319 319 321 322 322 323 323 323 323 323
277 277 277 279 282 285 289 294 296 297 296 297 299 300 302 304 307 309 311 312 314 315 317 317 318 318 318 317 316 315 314 313 313 312 310 310 309 307 306 304 304 303 302 302 302 302 303 304 305 306 308 309 310 311 311 311 311 311 312 313 313 313 313 313 313 314 316 317 319 319 311 308 315 319 317 320 321 318 317 317 319 320 319 320 320 321 321 321
275 274 277 280 283 288 292 295 297 298 298 298 299 301 304 307 309 310 312 314 315 317 318 318 318 318 317 316 315 314 313 313 313 312 310 309 309 308 306 305 304 304 303 303 302 302 303 303 304 305 306 307 308 309 309 309 309 309 311 312 312 312 312 311 311 311 313 314 316 317 309 306 312 315 315 319 320 317 317 317 317 317 317 318 318 319 319 319
271 273 278 281 285 290 293 295 297 298 297 298 300 303 306 308 310 312 314 316 317 318 319 319 318 318 317 316 315 314 314 314 313 312 310 310 309 309 308 307 306 305 304 304 303 303 304 304 304 304 305 306 307 308 308 307 307 308 309 310 311 311 310 310 310 310 312 312 314 316 309 306 310 313 314 318 318 316 316 316 316 316 316 317 317 318 318 318
270 275 279 282 288 292 293 295 296 296 297 300 303 305 308 310 312 315 316 317 318 319 319 319 319 318 317 315 314 314 314 314 314 312 311 310 310 309 309 308 307 306 305 305 305 305 305 305 305 304 305 306 307 307 307 306 306 307 308 309 310 310 309 309 308 309 310 311 312 314 311 308 309 311 313 317 316 315 314 315 315 316 316 317 317 318 318 318
272 275 279 285 290 293 293 294 295 296 299 302 304 307 310 312 315 316 317 318 319 320 320 321 320 319 317 315 315 315 315 315 314 313 312 311 310 309 309 309 307 307 306 306 306 306 306 306 306 305 306 306 306 307 307 306 306 307 307 309 310 310 309 309 308 308 309 309 310 311 311 309 308 308 312 315 315 314 314 315 315 315 316 316 317 317 318 318
271 275 281 287 291 291 292 293 294 297 300 303 306 310 312 315 316 317 318 319 320 321 322 323 322 320 317 316 316 316 317 316 316 315 313 312 312 311 310 310 309 308 307 307 306 306 306 307 306 306 306 307 307 308 308 307 306 307 307 308 310 310 310 310 309 308 309 309 309 309 311 311 307 307 312 314 314 314 314 314 315 315 315 315 316 317 317 316
270 277 284 288 289 289 290 292 295 298 301 305 309 312 314 316 317 318 318 320 321 323 324 325 324 321 318 318 318 319 318 318 317 316 315 314 313 312 311 311 310 310 309 308 308 307 307 307 306 305 305 306 307 308 308 307 306 305 305 306 308 309 310 310 309 308 308 311 311 309 312 313 309 308 312 314 313 314 314 313 314 314 314 315 315 316 317 316
271 279 284 286 286 288 290 292 296 300 304 308 311 313 315 317 317 318 319 321 323 325 327 328 326 323 320 319 320 320 320 320 319 318 316 315 314 314 313 312 311 311 311 310 310 309 308 308 308 307 306 306 307 308 308 306 305 304 303 305 307 309 310 310 309 307 308 311 311 309 311 314 310 309 313 314 313 314 314 313 314 314 314 314 316 317 317 316
274 279 281 282 285 287 290 293 298 303 307 310 312 314 316 317 317 319 320 322 324 327 330 331 330 327 323 321 321 321 322 321 320 319 318 317 316 315 314 313 313 312 312 312 311 311 310 310 310 310 308 309 310 311 310 309 307 305 304 305 308 310 311 311 309 308 308 310 311 309 311 314 310 309 312 313 313 314 314 313 313 313 313 314 316 317 317 316
274 275 277 280 284 287 290 295 300 305 309 311 313 315 317 317 318 320 321 323 325 328 331 333 334 331 328 325 323 322 322 322 322 321 320 319 318 317 316 315 314 313 313 312 312 312 311 311 311 311 309 309 311 312 311 310 308 305 304 306 309 312 313 312 310 308 308 311 312 311 312 313 310 309 312 312 311 313 313 313 312 312 312 314 316 317 316 316
271 274 278 281 284 287 292 298 303 308 311 312 314 315 317 317 318 320 322 324 326 329 331 334 335 335 334 331 327 325 324 323 323 322 321 320 320 319 318 317 316 315 314 314 313 313 313 312 312 312 310 309 311 312 311 310 308 305 304 306 310 314 315 314 311 309 309 311 312 312 313 312 309 310 312 311 311 313 313 313 312 311 312 314 316 316 316 315
270 274 278 280 284 289 295 301 307 310 311 312 314 316 317 317 319 321 323 324 326 328 331 333 335 337 337 336 334 331 329 327 325 323 322 321 321 321 320 319 318 317 316 316 315 314 314 314 313 314 312 310 311 312 311 310 308 306 305 307 310 315 316 315 311 309 309 310 311 312 312 310 309 311 312 312 312 313 313 312 312 311 312 314 316 316 315 315
270 274 276 280 286 292 299 305 308 310 311 312 315 316 316 317 319 321 323 325 327 329 331 333 335 336 338 338 338 336 335 332 330 328 326 325 323 322 321 320 319 318 317 316 316 315 315 315 314 315 314 312 312 312 312 311 309 307 306 307 311 315 316 314 311 308 308 309 310 311 311 309 309 311 312 312 312 312 312 312 311 310 312 315 316 315 315 315
269 272 277 283 289 296 302 306 308 309 311 313 315 316 317 318 319 321 324 326 327 329 331 332 334 335 336 337 338 338 337 336 335 334 332 329 327 325 323 321 320 319 317 317 316 316 316 316 315 316 316 314 312 312 312 310 309 307 305 307 311 315 316 314 311 309 309 309 311 312 311 309 310 310 311 311 312 312 312 312 310 310 312 314 315 314 314 314
268 273 280 287 293 300 304 306 307 309 311 313 315 316 317 318 320 322 324 326 327 329 330 331 331 332 333 334 335 336 336 337 337 336 334 333 331 329 327 325 324 322 320 318 317 317 317 317 317 317 318 315 312 312 312 310 309 306 305 307 312 314 314 313 311 310 308 309 311 312 310 310 310 311 311 312 312 313 313 312 310 310 312 314 314 314 314 314
Height
10713 10715 10716 10718 10719 10721 10722 10723 10725 10726 10726 10727 10728 10728 10729 10729 10730 10730 10731 10731 10731 10731 10732 10732 10733 10733 10733 10734 10734 10734 10734 10735 10735 10735 10735 10735 10735 10735 10734 10734 10733 10732 10732 10732 10731 10731 10731 10730 10729 10728 10728 10727 10727 10726 10725 10725 10724 10723 10722 10720 10718 10718 10720 10720 10720 10719 10718 10717 10716 10715 10713 10712 10710 10708 10707 10706 10705 10704 10703 10702 10701 10701 10700 10700 10699 10698 10697 10697
10711 10713 10714 10716 10717 10719 10720 10721 10723 10723 10724 10725 10726 10727 10727 10727 10728 10728 10729 10729 10729 10729 10730 10730 10730 10731 10731 10731 10732 10732 10732 10732 10732 10732 10732 10732 10732 10731 10731 10730 10730 10730 10729 10728 10728 10727 10727 10726 10725 10725 10724 10723 10722 10722 10721 10720 10719 10718 10717 10715 10713 10713 10714 10713 10713 10713 10712 10711 10709 10708 10707 10705 10704 10702 10701 10699 10698 10697 10696 10695 10694 10693 10693 10692 10691 10691 10690 10689
10709 10711 10713 10714 10716 10717 10718 10719 10720 10721 10722 10723 10724 10724 10725 10726 10726 10726 10727 10727 10727 10727 10728 10728 10728 10729 10729 10729 10729 10729 10729 10730 10729 10729 10729 10729 10728 10727 10726 10727 10727 10726 10725 10724 10723 10723 10722 10722 10721 10720 10719 10719 10718 10717 10717 10715 10714 10713 10712 10710 10708 10707 10707 10707 10707 10707 10706 10705 10703 10701 10700 10699 10697 10696 10694 10693 10691 10690 10689 10688 10687 10686 10685 10684 10684 10683 10683 10681
10707 10709 10711 10712 10714 10715 10716 10717 10718 10719 10720 10721 10722 10722 10723 10724 10724 10724 10725 10725 10725 10726 10726 10726 10726 10727 10727 10727 10727 10726 10727 10727 10727 10726 10726 10725 10724 10723 10723 10723 10723 10722 10721 10720 10719 10718 10717 10717 10716 10716 10715 10714 10713 10712 10711 10709 10708 10708 10706 10705 10703 10701 10701 10701 10700 10700 10699 10698 10697 10696 10694 10692 10690 10689 10687 10685 10684 10683 10681 10680 10679 10678 10678 10677 10676 10675 10674 10673
10706 10707 10709 10710 10712 10713 10714 10715 10717 10718 10718 10719 10720 10720 10721 10721 10722 10722 10723 10723 10724 10724 10724 10724 10725 10725 10725 10724 10724 10724 10724 10724 10723 10722 10722 10721 10720 10720 10719 10719 10718 10716 10715 10715 10714 10713 10712 10711 10710 10710 10709 10709 10708 10706 10705 10704 10702 10702 10700 10699 10697 10695 10695 10694 10693 10692 10692 10691 10690 10688 10687 10685 10683 10682 10680 10678 10677 10675 10673 10672 10671 10670 10669 10668 10667 10666 10665 10663
10704 10705 10707 10708 10710 10711 10712 10714 10715 10716 10717 10717 10718 10718 10719 10720 10720 10721 10721 10721 10722 10722 10722 10722 10722 10722 10722 10721 10721 10721 10720 10720 10719 10719 10718 10717 10716 10716 10715 10714 10713 10711 10710 10710 10709 10708 10707 10705 10705 10704 10703 10702 10701 10700 10699 10697 10696 10695 10694 10692 10690 10689 10688 10686 10685 10685 10684 10683 10682 10681 10679 10677 10676 10674 10672 10671 10668 10666 10664 10663 10662 10662 10660 10659 10658 10656 10655 10653
10702 10704 10705 10707 10708 10709 10711 10712 10713 10714 10715 10716 10716 10717 10718 10718 10719 10719 10719 10719 10719 10720 10720 10720 10719 10719 10719 10718 10718 10717 10717 10716 10716 10715 10714 10712 10712 10711 10710 10709 10707 10706 10705 10704 10703 10702 10701 10700 10699 10697 10696 10695 10694 10693 10692 10691 10689 10688 10686 10685 10683 10682 10681 10679 10678 10677 10676 10675 10674 10672 10671 10669 10667 10666 10664 10662 10659 10657 10655 10654 10653 10652 10650 10649 10648 10646 10644 10642
10701 10702 10704 10705 10707 10708 10709 10710 10711 10712 10713 10714 10715 10716 10717 10717 10718 10718 10718 10718 10718 10718 10718 10717 10717 10716 10715 10715 10714 10713 10713 10712 10712 10711 10709 10708 10707 10706 10705 10703 10702 10701 10699 10698 10697 10696 10695 10694 10692 10691 10689 10688 10687 10686 10685 10683 10682 10681 10680 10678 10676 10674 10673 10671 10670 10668 10667 10666 10664 10663 10662 10660 10658 10657 10654 10652 10649 10648 10646 10645 10643 10642 10640 10638 10637 10635 10634 10632
10700 10701 10702 10704 10705 10707 10708 10709 10710 10711 10712 10713 10713 10714 10715 10715 10715 10715 10715 10715 10715 10715 10715 10714 10714 10713 10712 10711 10710 10709 10708 10708 10707 10706 10704 10703 10702 10700 10699 10698 10697 10695 10693 10692 10691 10689 10688 10686 10685 10683 10682 10681 10679 10678 10677 10676 10674 10673 10672 10670 10668 10666 10665 10663 10661 10659 10657 10656 10655 10654 10652 10650 10649 10647 10645 10642 10640 10638 10637 10635 10633 10631 10629 10628 10626 10624 10622 10620
10698 10699 10701 10702 10704 10705 10706 10707 10708 10709 10710 10711 10712 10712 10712 10712 10712 10712 10712 10711 10711 10711 10711 10710 10710 10709 10708 10707 10706 10705 10704 10704 10703 10701 10698 10698 10697 10695 10693 10692 10690 10689 10687 10685 10683 10682 10680 10679 10677 10675 10674 10673 10672 10670 10669 10667 10666 10664 10663 10662 10660 10658 10656 10654 10652 10650 10648 10647 10645 10644 10643 10641 10638 10637 10635 10632 10631 10629 10627 10625 10623 10620 10618 10616 10615 10612 10611 10609
10696 10698 10699 10701 10702 10704 10705 10706 10707 10708 10709 10709 10710 10710 10710 10710 10710 10709 10709 10709 10708 10708 10708 10707 10706 10705 10704 10703 10702 10701 10699 10699 10699 10696 10694 10692 10691 10689 10687 10685 10683 10682 10680 10678 10676 10674 10672 10671 10669 10668 10666 10665 10664 10662 10661 10659 10658 10656 10654 10653 10651 10649 10648 10646 10643 10641 10639 10638 10636 10634 10633 10631 10628 10626 10624 10622 10620 10618 10616 10614 10611 10609 10607 10605 10603 10601 10599 10597
10695 10697 10698 10700 10701 10702 10703 10704 10706 10706 10707 10708 10708 10708 10708 10708 10707 10707 10706 10706 10706 10705 10705 10703 10703 10702 10700 10699 10698 10697 10695 10694 10694 10692 10689 10686 10685 10684 10682 10680 10677 10675 10673 10671 10669 10667 10665 10663 10662 10660 10659 10657 10656 10655 10653 10651 10649 10647 10645 10644 10642 10640 10639 10636 10634 10632 10630 10628 10626 10624 10624 10621 10617 10615 10614 10611 10610 10607 10604 10602 10600 10598 10596 10594 10592 10590 10588 10585
10694 10695 10697 10698 10699 10700 10702 10703 10704 10704 10705 10705 10706 10706 10705 10705 10705 10704 10704 10703 10703 10702 10701 10700 10699 10698 10696 10695 10693 10692 10690 10689 10688 10687 10684 10681 10679 10677 10676 10674 10672 10670 10668 10666 10663 10661 10659 10657 10655 10654 10652 10650 10648 10647 10646 10643 10642 10639 10638 10636 10634 10632 10630 10628 10625 10624 10621 10619 10616 10614 10614 10611 10607 10605 10603 10601 10598 10596 10593 10591 10588 10586 10584 10582 10580 10578 10576 10573
10692 10694 10695 10697 10698 10699 10700 10701 10702 10702 10703 10703 10703 10703 10703 10702 10702 10701 10701 10700 10699 10698 10697 10696 10695 10693 10692 10690 10689 10688 10686 10684 10682 10681 10680 10677 10674 10672 10670 10668 10666 10664 10663 10661 10658 10656 10654 10652 10650 10648 10645 10644 10642 10640 10638 10636 10634 10632 10630 10628 10625 10623 10622 10619 10617 10615 10612 10609 10607 10605 10604 10601 10597 10595 10593 10590 10587 10584 10582 10579 10577 10575 10573 10571 10568 10566 10563 10561
10691 10692 10694 10695 10696 10697 10698 10699 10700 10700 10700 10700 10700 10700 10700 10699 10699 10698 10697 10696 10695 10694 10693 10692 10690 10689 10688 10686 10684 10683 10682 10679 10677 10675 10674 10672 10670 10667 10665 10663 10661 10659 10657 10655 10653 10650 10648 10646 10644 10641 10639 10637 10635 10633 10631 10629 10626 10624 10622 10620 10617 10615 10613 10610 10608 10606 10603 10600 10597 10595 10594 10591 10587 10585 10582 10579 10576 10573 10571 10568 10566 10564 10561 10558 10556 10553 10551 10548
10689 10691 10692 10694 10695 10696 10697 10697 10697 10698 10698 10698 10697 10697 10697 10696 10696 10695 10694 10693 10691 10690 10689 10688 10686 10685 10684 10682 10680 10679 10677 10675 10673 10671 10669 10667 10665 10663 10661 10659 10656 10654 10652 10650 10647 10645 10642 10639 10637 10635 10632 10630 10627 10625 10623 10621 10618 10615 10613 10611 10608 10605 10603 10601 10598 10595 10593 10590 10587 10584 10583 10580 10577 10574 10571 10568 10565 10562 10560 10557 10555 10552 10549 10546 10544 10541 10539 10536
10688 10689 10691 10692 10693 10694 10694 10695 10695 10695 10695 10695 10695 10695 10694 10694 10693 10691 10690 10689 10688 10686 10685 10684 10682 10681 10680 10678 10676 10674 10673 10671 10669 10667 10665 10663 10660 10658 10656 10654 10652 10649 10647 10644 10642 10639 10636 10633 10630 10628 10625 10622 10620 10617 10615 10612 10609 10606 10604 10601 10599 10596 10593 10591 10588 10585 10582 10580 10577 10574 10572 10570 10566 10564 10561 10558 10555 10553 10550 10546 10543 10541 10538 10535 10533 10530 10527 10525
10687 10688 10689 10690 10691 10691 10692 10692 10692 10692 10693 10693 10693 10692 10691 10690 10689 10688 10687 10685 10684 10683 10681 10680 10678 10677 10675 10673 10672 10670 10668 10667 10665 10663 10661 10658 10656 10654 10651 10649 10646 10644 10641 10638 10635 10632 10629 10626 10623 10620 10617 10614 10611 10609 10606 10604 10601 10598 10595 10592 10589 10586 10583 10581 10578 10576 10573 10570 10567 10564 10562 10559 10556 10554 10551 10549 10546 10543 10539 10536 10533 10531 10528 10525 10522 10519 10517 10514
10685 10686 10687 10688 10688 10689 10689 10690 10690 10690 10691 10691 10690 10689 10688 10687 10686 10684 10683 10682 10680 10679 10678 10676 10674 10673 10671 10669 10668 10666 10665 10663 10661 10659 10656 10654 10652 10649 10647 10644 10641 10638 10635 10632 10629 10626 10622 10619 10615 10612 10609 10606 10603 10600 10598 10595 10592 10589 10586 10583 10580 10577 10574 10571 10569 10567 10564 10561 10558 10555 10552 10548 10546 10545 10542 10539 10536 10533 10530 10527 10524 10521 10518 10515 10512 10510 10507 10504
10683 10684 10685 10686 10686 10687 10687 10688 10688 10688 10688 10687 10686 10686 10684 10683 10682 10681 10679 10678 10677 10675 10674 10673 10671 10669 10668 10666 10664 10662 10661 10659 10656 10654 10652 10649 10647 10644 10641 10638 10635 10632 10629 10626 10622 10618 10615 10611 10608 10605 10601 10598 10595 10592 10590 10587 10584 10581 10578 10575 10572 10569 10566 10563 10560 10558 10555 10552 10548 10545 10542 10539 10537 10536 10533 10530 10527 10524 10521 10518 10516 10513 10509 10507 10504 10501 10497 10494
10682 10682 10683 10684 10684 10685 10685 10686 10686 10686 10685 10684 10683 10682 10681 10680 10678 10677 10676 10675 10674 10672 10671 10669 10667 10666 10664 10662 10661 10658 10656 10654 10652 10650 10647 10645 10642 10639 10636 10633 10629 10625 10622 10619 10615 10611 10607 10604 10600 10597 10594 10591 10588 10585 10582 10579 10576 10573 10570 10567 10564 10561 10558 10554 10552 10549 10546 10543 10539 10536 10533 10530 10529 10528 10524 10521 10518 10516 10513 10510 10507 10504 10501 10498 10495 10491 10488 10484
10680 10680 10681 10682 10682 10683 10683 10683 10683 10682 10682 10681 10679 10678 10677 10676 10675 10674 10673 10672 10671 10669 10668 10666 10664 10662 10660 10659 10657 10655 10652 10650 10648 10646 10643 10640 10637 10634 10630 10626 10623 10618 10615 10611 10607 10603 10600 10597 10594 10591 10587 10584 10582 10578 10576 10573 10570 10567 10564 10561 10557 10554 10551 10547 10544 10542 10538 10535 10532 10528 10524 10520 10520 10519 10514 10511 10510 10507 10503 10501 10498 10494 10491 10488 10484 10481 10477 10473
10678 10678 10679 10680 10680 10681 10681 10680 10679 10679 10678 10677 10676 10675 10674 10673 10672 10671 10670 10668 10667 10666 10664 10663 10661 10659 10657 10655 10653 10651 10648 10646 10643 10640 10638 10634 10631 10627 10623 10619 10615 10611 10608 10604 10600 10596 10593 10590 10587 10584 10582 10579 10576 10573 10570 10567 10563 10560 10557 10554 10551 10547 10544 10540 10537 10534 10530 10527 10524 10521 10515 10512 10512 10509 10504 10502 10500 10496 10493 10490 10487 10484 10481 10477 10473 10470 10466 10462
10676 10676 10677 10678 10678 10678 10678 10677 10676 10676 10675 10674 10673 10672 10671 10670 10669 10668 10666 10665 10664 10662 10661 10659 10657 10655 10653 10651 10649 10647 10644 10641 10638 10635 10632 10628 10625 10621 10616 10612 10608 10604 10601 10597 10593 10590 10587 10585 10582 10579 10577 10574 10571 10567 10564 10561 10557 10554 10551 10548 10544 10540 10537 10533 10529 10525 10522 10518 10516 10513 10507 10503 10503 10499 10494 10493 10490 10486 10483 10480 10477 10473 10470 10467 10463 10460 10456 10452
10674 10674 10675 10676 10676 10675 10675 10674 10674 10673 10672 10671 10670 10669 10668 10667 10666 10665 10663 10662 10661 10659 10658 10656 10654 10652 10649 10647 10645 10642 10639 10636 10633 10630 10626 10622 10618 10614 10610 10606 10602 10598 10595 10591 10588 10585 10582 10580 10577 10575 10572 10569 10566 10563 10559 10556 10552 10548 10545 10541 10537 10533 10530 10526 10522 10517 10514 10510 10507 10506 10500 10496 10495 10490 10487 10485 10481 10478 10475 10471 10468 10465 10462 10458 10455 10451 10447 10443
10672 10673 10673 10674 10673 10673 10672 10672 10671 10670 10669 10668 10667 10666 10665 10664 10663 10662 10660 10659 10658 10656 10654 10652 10650 10648 10646 10643 10640 10637 10634 10631 10627 10624 10620 10617 10613 10608 10604 10600 10597 10593 10590 10587 10583 10580 10578 10575 10572 10570 10567 10564 10560 10557 10553 10550 10546 10542 10539 10535 10530 10527 10523 10519 10515 10511 10507 10504 10500 10498 10494 10490 10488 10484 10481 10478 10475 10471 10468 10465 10462 10458 10455 10451 10447 10444 10440 10436
10671 10671 10672 10671 10671 10670 10670 10669 10668 10667 10667 10666 10665 10664 10663 10662 10660 10659 10658 10656 10655 10653 10651 10649 10647 10644 10642 10639 10636 10633 10629 10625 10621 10618 10614 10611 10607 10603 10599 10595 10591 10588 10585 10582 10579 10576 10573 10570 10568 10565 10562 10559 10555 10551 10548 10544 10541 10537 10533 10529 10525 10521 10517 10513 10510 10506 10502 10499 10495 10492 10489 10485 10482 10479 10476 10472 10469 10466 10462 10459 10456 10452 10448 10445 10441 10437 10432 10429
10669 10669 10669 10669 10669 10668 10667 10666 10666 10665 10664 10663 10662 10661 10660 10659 10657 10656 10655 10653 10651 10649 10647 10645 10642 10640 10637 10634 10631 10628 10625 10621 10617 10612 10608 10605 10601 10597 10594 10590 10587 10584 10581 10578 10575 10572 10569 10566 10563 10561 10558 10554 10550 10547 10543 10540 10536 10532 10528 10524 10520 10516 10513 10509 10505 10501 10498 10494 10491 10487 10484 10481 10477 10474 10471 10467 10464 10460 10457 10453 10449 10445 10442 10438 10434 10430 10426 10422
10667 10667 10667 10667 10666 10666 10665 10664 10663 10662 10661 10660 10660 10658 10657 10656 10655 10653 10651 10650 10647 10645 10644 10641 10638 10635 10632 10629 10625 10622 10619 10616 10612 10607 10603 10599 10596 10592 10589 10586 10583 10580 10577 10574 10571 10568 10565 10562 10559 10557 10554 10550 10546 10543 10539 10536 10532 10529 10524 10520 10516 10513 10509 10506 10502 10497 10493 10489 10486 10482 10479 10475 10472 10468 10465 10462 10459 10455 10452 10449 10445 10441 10438 10434 10430 10425 10421 10417
10665 10665 10664 10664 10664 10663 10662 10661 10660 10660 10659 10658 10657 10656 10654 10653 10652 10650 10648 10646 10644 10642 10640 10637 10634 10631 10627 10624 10620 10616 10613 10609 10605 10602 10598 10594 10590 10587 10584 10581 10578 10576 10573 10570 10567 10564 10561 10558 10556 10553 10550 10546 10543 10539 10536 10532 10529 10525 10521 10517 10513 10509 10505 10501 10497 10493 10489 10484 10480 10477 10473 10469 10467 10464 10460 10457 10455 10452 10450 10446 10443 10439 10434 10431 10426 10421 10416 10412
10662 10662 10662 10662 10661 10661 10660 10659 10658 10657 10656 10655 10654 10653 10652 10650 10649 10647 10645 10643 10640 10638 10635 10633 10630 10626 10623 10619 10615 10611 10607 10603 10599 10596 10592 10589 10586 10583 10580 10577 10574 10571 10569 10566 10563 10561 10558 10555 10552 10549 10546 10543 10539 10536 10532 10528 10524 10521 10517 10512 10508 10504 10500 10496 10492 10489 10485 10481 10477 10474 10471 10466 10462 10461 10458 10454 10451 10448 10445 10442 10438 10434 10430 10426 10422 10417 10412 10407
10660 10660 10659 10659 10659 10658 10657 10656 10655 10654 10654 10653 10651 10650 10649 10647 10646 10644 10642 10639 10637 10634 10631 10628 10625 10622 10618 10615 10610 10607 10603 10598 10594 10590 10587 10584 10581 10578 10576 10573 10570 10567 10565 10562 10560 10557 10554 10551 10548 10545 10542 10539 10535 10531 10528 10524 10520 10516 10512 10508 10504 10499 10496 10492 10488 10484 10481 10478 10475 10472 10470 10466 10460 10457 10455 10451 10448 10444 10439 10436 10432 10428 10424 10420 10416 10412 10407 10402
10658 10657 10657 10657 10656 10655 10654 10654 10653 10652 10651 10650 10649 10648 10646 10644 10643 10640 10638 10636 10633 10630 10627 10624 10620 10617 10613 10610 10606 10602 10598 10594 10590 10586 10583 10580 10577 10574 10572 10569 10566 10564 10561 10558 10556 10553 10550 10548 10545 10541 10538 10534 10531 10527 10523 10520 10516 10512 10509 10505 10502 10498 10494 10490 10485 10481 10476 10474 10472 10469 10468 10466 10460 10455 10452 10448 10444 10440 10435 10431 10427 10422 10418 10414 10410 10406 10401 10396
10655 10655 10655 10654 10654 10653 10652 10651 10650 10650 10649 10647 10646 10645 10643 10641 10639 10637 10635 10632 10629 10626 10622 10619 10616 10612 10608 10604 10601 10597 10593 10589 10585 10582 10579 10576 10573 10570 10568 10565 10562 10560 10557 10555 10552 10549 10546 10544 10540 10537 10533 10530 10526 10523 10519 10516 10512 10509 10506 10503 10500 10496 10493 10489 10485 10481 10475 10469 10466 10463 10461 10462 10459 10453 10449 10445 10439 10435 10431 10426 10422 10417 10412 10408 10403 10399 10394 10389
10653 10653 10652 10652 10651 10650 10649 10649 10648 10647 10646 10645 10643 10642 10640 10638 10636 10634 10631 10628 10625 10621 10618 10614 10611 10607 10603 10600 10596 10592 10588 10584 10581 10578 10575 10572 10569 10567 10564 10561 10558 10556 10553 10551 10548 10545 10542 10540 10536 10533 10529 10526 10522 10519 10516 10512 10509 10506 10502 10499 10496 10493 10490 10486 10483 10479 10475 10468 10461 10455 10450 10452 10455 10451 10445 10442 10436 10430 10425 10420 10416 10412 10406 10401 10396 10392 10387 10381
10651 10650 10650 10649 10648 10648 10647 10646 10645 10644 10643 10642 10640 10639 10637 10635 10633 10630 10627 10624 10621 10617 10613 10609 10605 10602 10598 10595 10591 10587 10584 10580 10577 10574 10571 10569 10566 10563 10560 10558 10555 10552 10550 10547 10544 10541 10538 10535 10532 10528 10525 10522 10518 10514 10512 10509 10506 10502 10499 10496 10492 10488 10485 10482 10479 10476 10473 10467 10459 10451 10441 10439 10445 10445 10440 10437 10433 10426 10420 10414 10410 10406 10401 10396 10390 10386 10380 10375
10648 10648 10647 10647 10646 10645 10645 10644 10643 10642 10641 10639 10638 10636 10634 10632 10629 10626 10623 10620 10617 10613 10609 10604 10600 10597 10593 10590 10586 10583 10579 10576 10573 10570 10567 10565 10562 10559 10556 10553 10551 10548 10545 10543 10540 10537 10534 10530 10528 10524 10521 10518 10514 10510 10507 10504 10501 10498 10496 10493 10489 10485 10480 10477 10474 10471 10469 10465 10458 10449 10434 10428 10435 10437 10432 10431 10427 10422 10416 10409 10405 10401 10396 10391 10385 10379 10374 10368
10646 10645 10645 10644 10644 10643 10642 10641 10640 10639 10638 10636 10635 10633 10631 10628 10626 10623 10620 10616 10612 10608 10604 10600 10596 10592 10588 10585 10582 10578 10575 10572 10569 10566 10563 10561 10558 10555 10552 10549 10547 10544 10541 10538 10535 10532 10529 10526 10523 10519 10516 10513 10509 10506 10502 10498 10495 10493 10491 10488 10485 10482 10477 10472 10469 10466 10465 10462 10458 10451 10431 10419 10427 10430 10424 10424 10421 10415 10410 10403 10399 10395 10390 10385 10379 10373 10367 10361
10643 10643 10643 10642 10641 10641 10640 10639 10638 10637 10635 10633 10632 10630 10627 10625 10622 10619 10615 10612 10608 10604 10600 10596 10592 10588 10584 10580 10577 10574 10571 10568 10565 10562 10559 10556 10553 10551 10548 10545 10542 10539 10536 10533 10530 10527 10524 10521 10517 10514 10511 10508 10504 10501 10497 10492 10489 10486 10485 10482 10479 10477 10473 10468 10463 10459 10458 10456 10455 10453 10432 10414 10419 10423 10417 10416 10413 10406 10402 10396 10391 10388 10383 10378 10373 10366 10360 10353
10641 10641 10640 10640 10639 10638 10637 10636 10635 10634 10632 10631 10629 10626 10624 10621 10618 10615 10611 10608 10604 10600 10596 10592 10587 10583 10579 10576 10573 10570 10567 10564 10561 10558 10555 10552 10549 10546 10543 10540 10537 10534 10531 10528 10525 10522 10518 10515 10512 10508 10506 10503 10499 10496 10491 10487 10483 10480 10478 10476 10473 10470 10467 10463 10458 10452 10451 10448 10447 10448 10434 10413 10411 10414 10410 10409 10405 10397 10393 10389 10383 10379 10374 10370 10365 10359 10353 10346
10639 10638 10638 10637 10637 10636 10635 10634 10633 10631 10629 10628 10626 10623 10621 10618 10615 10611 10607 10604 10600 10596 10592 10588 10583 10579 10575 10572 10569 10565 10563 10559 10556 10553 10550 10547 10544 10541 10539 10536 10533 10530 10526 10523 10520 10516 10513 10510 10505 10501 10499 10497 10494 10490 10486 10481 10477 10473 10471 10469 10467 10464 10460 10458 10454 10447 10443 10440 10437 10440 10432 10413 10405 10405 10403 10401 10396 10389 10384 10380 10375 10370 10365 10361 10356 10350 10344 10337
10637 10636 10636 10635 10634 10633 10632 10631 10630 10628 10627 10625 10623 10620 10617 10614 10611 10607 10603 10600 10596 10592 10588 10584 10579 10575 10571 10567 10564 10561 10558 10555 10552 10549 10546 10543 10540 10537 10534 10531 10528 10525 10521 10518 10514 10511 10508 10505 10500 10494 10491 10490 10488 10485 10480 10475 10470 10466 10464 10462 10460 10457 10453 10449 10447 10443 10439 10434 10429 10430 10428 10413 10399 10396 10397 10395 10389 10381 10375 10371 10365 10360 10354 10350 10346 10341 10336 10329
10634 10634 10633 10633 10632 10631 10630 10629 10627 10626 10624 10622 10620 10617 10614 10611 10607 10604 10600 10596 10592 10588 10584 10580 10575 10571 10567 10564 10560 10557 10553 10550 10547 10544 10541 10538 10535 10531 10528 10526 10522 10519 10516 10512 10509 10505 10502 10500 10496 10490 10484 10481 10479 10477 10473 10467 10462 10458 10454 10453 10452 10449 10446 10442 10437 10434 10432 10428 10421 10419 10421 10411 10394 10388 10390 10388 10381 10373 10366 10361 10356 10350 10345 10340 10336 10332 10327 10321
10632 10632 10631 10630 10629 10628 10627 10626 10624 10623 10621 10619 10617 10614 10611 10607 10603 10600 10596 10592 10589 10584 10580 10576 10571 10567 10564 10560 10557 10553 10549 10546 10542 10539 10536 10533 10530 10527 10523 10520 10517 10514 10510 10507 10503 10499 10495 10493 10492 10487 10482 10477 10473 10470 10467 10461 10454 10449 10445 10444 10444 10442 10439 10435 10429 10424 10423 10422 10414 10407 10411 10406 10386 10377 10381 10379 10372 10366 10357 10350 10346 10341 10336 10330 10326 10321 10315 10309
10630 10630 10629 10628 10627 10626 10625 10623 10622 10620 10618 10616 10613 10610 10607 10604 10600 10596 10593 10589 10585 10581 10576 10572 10567 10563 10560 10556 10553 10550 10546 10542 10538 10535 10531 10528 10525 10522 10519 10515 10512 10509 10505 10502 10498 10494 10489 10485 10483 10480 10476 10474 10471 10467 10464 10458 10449 10443 10438 10435 10437 10435 10432 10428 10422 10416 10413 10415 10409 10397 10399 10401 10382 10367 10369 10366 10361 10358 10349 10340 10334 10329 10325 10320 10316 10310 10303 10296
10628 10627 10626 10625 10625 10623 10622 10621 10619 10617 10615 10613 10610 10607 10604 10600 10596 10593 10589 10585 10581 10577 10573 10568 10564 10560 10556 10552 10549 10545 10542 10539 10535 10531 10527 10524 10520 10517 10514 10511 10507 10504 10500 10497 10494 10490 10484 10479 10475 10471 10466 10463 10463 10460 10457 10452 10444 10435 10428 10426 10428 10428 10425 10420 10414 10407 10402 10405 10404 10391 10386 10391 10379 10365 10362 10357 10350 10347 10341 10332 10324 10317 10314 10311 10307 10301 10294 10286
10626 10625 10624 10623 10622 10621 10619 10618 10616 10614 10612 10609 10607 10604 10600 10597 10593 10589 10586 10582 10578 10574 10570 10565 10561 10557 10552 10549 10545 10541 10538 10534 10531 10527 10523 10520 10516 10512 10509 10506 10502 10499 10496 10492 10489 10486 10482 10475 10471 10467 10459 10453 10454 10451 10447 10443 10436 10426 10417 10415 10418 10419 10417 10412 10405 10398 10393 10392 10393 10385 10378 10376 10369 10362 10358 10351 10344 10340 10334 10325 10317 10309 10304 10302 10298 10293 10286 10278
10623 10622 10622 10621 10620 10618 10617 10615 10613 10611 10609 10606 10603 10600 10597 10593 10589 10586 10582 10578 10574 10570 10566 10562 10558 10554 10549 10545 10542 10538 10534 10530 10526 10523 10519 10516 10512 10508 10504 10501 10497 10493 10490 10487 10483 10481 10478 10473 10468 10464 10455 10446 10445 10444 10439 10434 10427 10417 10408 10405 10408 10410 10408 10405 10396 10387 10383 10381 10379 10377 10372 10364 10355 10353 10352 10342 10335 10332 10326 10317 10308 10299 10294 10293 10290 10284 10277 10270
10621 10620 10619 10618 10617 10615 10614 10612 10610 10608 10606 10603 10600 10597 10593 10589 10586 10582 10578 10574 10570 10566 10562 10558 10554 10550 10546 10542 10538 10534 10530 10526 10522 10519 10514 10511 10508 10503 10499 10495 10492 10488 10484 10482 10478 10475 10474 10470 10465 10462 10455 10443 10439 10437 10433 10427 10419 10409 10400 10395 10397 10401 10399 10395 10388 10378 10373 10372 10369 10367 10366 10358 10346 10343 10343 10335 10326 10321 10316 10309 10300 10289 10285 10284 10281 10274 10267 10261
10618 10618 10617 10615 10614 10613 10611 10609 10607 10605 10602 10600 10597 10593 10590 10586 10582 10579 10575 10571 10567 10563 10559 10555 10551 10547 10542 10539 10534 10530 10526 10522 10519 10515 10511 10506 10503 10499 10495 10491 10487 10483 10479 10476 10472 10468 10467 10465 10461 10459 10454 10443 10435 10432 10427 10421 10413 10403 10395 10389 10389 10393 10392 10386 10379 10371 10365 10363 10362 10358 10356 10352 10342 10336 10333 10327 10320 10314 10307 10300 10291 10281 10277 10276 10272 10264 10257 10251
10616 10615 10614 10613 10611 10610 10608 10606 10604 10602 10599 10596 10593 10590 10586 10583 10579 10575 10571 10568 10563 10559 10555 10551 10547 10543 10539 10535 10531 10527 10522 10518 10514 10510 10506 10502 10498 10494 10490 10486 10482 10478 10473 10470 10467 10462 10460 10458 10455 10453 10450 10441 10433 10429 10423 10416 10408 10399 10390 10387 10386 10386 10384 10378 10370 10363 10357 10354 10354 10350 10345 10340 10336 10331 10326 10320 10313 10306 10300 10291 10281 10275 10272 10268 10262 10255 10249 10242
10613 10612 10611 10610 10609 10607 10605 10603 10601 10598 10596 10593 10589 10586 10583 10579 10575 10572 10568 10564 10560 10556 10552 10548 10544 10540 10536 10532 10528 10524 10519 10515 10510 10506 10502 10498 10494 10489 10484 10480 10476 10472 10468 10464 10461 10457 10453 10451 10447 10445 10444 10437 10428 10424 10420 10412 10404 10395 10385 10384 10385 10382 10378 10373 10364 10356 10349 10346 10346 10342 10335 10329 10325 10321 10317 10314 10307 10298 10291 10282 10270 10265 10266 10263 10254 10246 10240 10234